This is the latest recevied weather packets stored in our database for station/object WD7CGF. If no packets are shown the sender has not sent any weather packets the latest 10 day(s).
| Time | Temp. | Humidity | Pressure | Rain* | Wind** | Luminosity | Snow |
|---|---|---|---|---|---|---|---|
| 1787467729 | 18.33° C | 66% | 1013.7 hPa | 0 mm | - | - | - |
| 1787467121 | 18.33° C | 65% | 1013.7 hPa | 0 mm | - | - | - |
| 1787466520 | 18.89° C | 65% | 1013.6 hPa | 0 mm | - | - | - |
| 1787465912 | 18.89° C | 64% | 1013.6 hPa | 0 mm | - | - | - |
| 1787465325 | 18.89° C | 64% | 1013.6 hPa | 0 mm | - | - | - |
| 1787464717 | 18.89° C | 64% | 1013.5 hPa | 0 mm | - | - | - |
| 1787464111 | 18.89° C | 65% | 1013.5 hPa | 0 mm | - | - | - |
| 1787463528 | 18.89° C | 65% | 1013.6 hPa | 0 mm | - | - | - |
| 1787462921 | 18.89° C | 65% | 1013.3 hPa | 0 mm | - | - | - |
| 1787462315 | 18.89° C | 65% | 1013.3 hPa | 0 mm | - | - | - |
| 1787461730 | 18.89° C | 65% | 1013.6 hPa | 0 mm | - | - | - |
| 1787461124 | 18.89° C | 65% | 1013.4 hPa | 0 mm | - | - | - |
| 1787460516 | 18.89° C | 65% | 1013.4 hPa | 0 mm | - | - | - |
| 1787459912 | 19.44° C | 65% | 1013 hPa | 0 mm | - | - | - |
| 1787459325 | 19.44° C | 64% | 1012.7 hPa | 0 mm | - | - | - |
| 1787458719 | 19.44° C | 64% | 1012.7 hPa | 0 mm | - | - | - |
| 1787458113 | 19.44° C | 64% | 1012.5 hPa | 0 mm | - | - | - |
| 1787457526 | 19.44° C | 65% | 1012.3 hPa | 0 mm | - | - | - |
| 1787456924 | 19.44° C | 64% | 1012.3 hPa | 0 mm | - | - | - |
| 1787456317 | 20° C | 65% | 1011.8 hPa | 0 mm | - | - | - |
| 1787455709 | 20° C | 65% | 1011.6 hPa | 0 mm | - | - | - |
| 1787455125 | 20.56° C | 64% | 1011.6 hPa | 0 mm | - | - | - |
| 1787454517 | 21.11° C | 62% | 1011.4 hPa | 0 mm | - | - | - |
| 1787453930 | 21.67° C | 59% | 1010.9 hPa | 0 mm | - | - | - |
| 1787453322 | 22.22° C | 55% | 1010.9 hPa | 0 mm | - | - | - |
* Rain latest hour (hover to see other rain measurements)
** Current wind speed in m/s (hover to see current wind gust speed)